Dewpoint
54 55 56 56 57 57 58 58 58 58 58 58 58 58 57 58 55 47 45 51 53 57 56 51 47 46 45 44 46 44 35 32 34 34 35 36 35 36 36 33 34 38 42 50 61
54 55 55 56 57 57 57 58 58 58 58 58 58 58 58 59 48 44 48 54 55 56 50 48 45 46 42 41 43 39 34 34 36 38 37 36 36 35 34 34 33 34 38 44 54
55 55 55 56 56 57 57 57 57 58 57 58 58 58 59 55 41 40 51 53 55 55 51 51 48 44 39 41 40 39 36 37 39 39 39 37 36 35 34 33 32 33 37 38 54
55 55 55 56 56 56 57 57 57 57 57 57 57 58 58 47 23 42 52 51 54 51 47 45 42 39 38 36 39 36 38 39 39 38 38 36 37 35 35 34 34 36 36 38 41
56 55 55 56 56 56 56 57 57 57 57 57 57 58 48 36 33 46 52 49 50 49 46 44 41 40 37 38 39 37 37 38 39 39 38 38 37 37 35 36 36 36 36 36 39
56 56 56 56 56 56 56 56 56 57 56 56 56 56 43 28 42 48 47 47 49 47 45 44 43 43 41 39 38 38 39 38 38 37 37 37 36 36 35 36 35 35 35 36 38
56 56 56 56 56 56 56 56 56 56 56 56 56 50 41 35 41 45 46 45 47 47 45 46 45 43 42 39 40 40 37 36 35 36 36 37 34 34 36 36 35 35 35 37 39
55 56 56 56 56 56 56 56 56 55 55 55 54 46 34 45 43 42 44 43 45 48 47 46 45 44 42 42 38 36 34 29 31 35 36 35 31 33 35 36 35 35 36 37 39
55 55 55 56 55 55 55 55 55 55 55 55 47 43 31 47 39 41 42 40 43 45 46 45 45 42 40 35 27 29 26 28 30 34 35 35 31 32 34 35 35 35 36 37 39
54 54 55 55 55 56 55 54 53 50 50 48 43 33 31 32 38 39 40 42 41 42 42 44 42 38 35 30 23 24 25 27 28 30 35 33 34 34 35 36 36 36 36 36 38
53 54 55 55 55 56 51 40 29 31 38 29 32 31 32 35 40 37 40 41 41 38 32 39 35 30 27 32 31 28 28 27 27 28 30 31 32 33 33 34 36 35 36 35 39
54 54 54 55 55 55 45 37 38 36 31 32 34 35 34 37 31 35 40 33 34 28 31 28 29 28 31 31 30 27 26 25 26 29 31 30 30 32 33 34 36 35 35 35 47
55 55 54 55 55 46 41 41 45 44 32 31 33 32 33 35 30 33 37 34 31 29 29 26 24 29 28 27 24 23 23 22 22 27 29 30 28 27 30 34 34 34 35 37 43
55 55 54 54 43 44 42 45 44 42 29 24 28 30 36 36 30 37 39 33 29 28 27 26 27 27 26 25 24 22 23 24 25 26 22 29 21 27 31 32 32 34 39 37 44
55 55 55 53 43 41 42 45 43 38 14 25 27 35 36 31 31 32 37 33 28 25 26 21 22 24 25 24 26 24 26 25 26 26 24 24 21 25 30 29 29 34 39 42 43
55 55 54 46 44 43 45 45 40 28 13 23 29 28 28 32 32 32 33 34 33 30 29 28 30 27 26 27 27 26 25 22 26 25 19 21 21 22 27 28 32 33 38 42 45
56 55 52 48 38 46 46 42 30 21 23 20 23 27 26 25 27 29 27 24 23 17 18 21 23 28 28 23 24 24 23 20 18 17 14 19 21 23 27 29 34 35 37 41 44
55 53 50 47 46 46 43 31 18 18 24 25 25 25 24 25 22 25 23 22 26 21 20 18 17 22 27 23 22 22 23 18 14 14 15 21 20 25 27 30 34 35 37 41 47
53 47 45 47 47 46 38 26 22 20 25 22 24 21 20 25 22 20 19 21 22 22 13 17 17 23 23 24 24 21 21 23 19 20 18 20 19 17 24 26 31 33 35 36 40
47 44 43 47 46 42 34 29 23 33 25 22 17 19 15 19 21 18 19 19 23 24 19 18 19 21 23 26 26 26 25 19 22 15 16 18 15 20 22 26 30 31 33 35 38
43 36 38 47 44 37 29 29 29 34 27 23 20 20 19 18 19 17 15 18 25 26 26 24 19 19 20 21 20 20 20 20 20 20 18 15 17 20 25 27 29 30 33 36 39
40 30 40 45 33 34 30 32 36 28 31 28 26 24 21 20 19 19 18 18 26 27 23 24 23 20 16 18 23 23 20 19 18 16 17 16 18 21 27 27 26 29 33 37 40
39 37 43 43 29 29 33 34 31 28 28 26 26 28 27 22 19 21 20 25 27 24 22 25 19 17 15 16 22 22 23 22 20 21 18 16 18 22 22 23 25 26 34 37 38
40 31 34 38 35 30 30 28 28 30 29 30 27 29 28 27 24 22 21 25 29 26 33 27 19 17 14 13 19 18 20 21 21 20 20 18 18 20 21 22 27 33 35 36 37
41 33 34 30 32 32 32 32 29 28 30 31 29 29 27 25 26 24 24 25 29 33 28 23 20 20 20 20 21 21 21 22 22 22 20 20 20 21 20 22 24 33 36 37 37
38 36 37 36 36 33 34 31 32 32 30 29 29 29 29 27 24 23 24 25 24 29 27 26 21 23 22 22 23 23 24 24 24 24 23 23 22 24 25 30 31 34 35 35 36
41 40 38 32 33 31 31 30 31 32 33 32 32 32 30 30 30 29 29 28 25 28 27 26 24 23 20 22 22 20 21 22 23 24 23 21 22 25 26 27 27 27 28 27 27
Lifted_Index
9 9 9 8 8 8 7 7 7 7 7 7 7 7 7 8 9 9 9 8 7 7 8 9 10 9 9 8 6 4 3 3 2 2 2 1 1 1 1 1 1 1 1 1 0
10 9 9 8 8 8 8 8 7 7 7 7 7 7 7 8 9 9 9 7 6 7 8 9 9 9 8 8 6 4 3 3 2 2 2 1 1 1 1 1 1 2 3 3 2
10 10 9 9 9 8 8 8 8 8 7 7 7 7 8 8 9 9 8 7 6 7 8 9 9 9 8 7 6 5 3 3 2 2 2 2 1 1 1 1 2 3 4 5 4
10 10 10 9 9 9 8 8 8 8 7 7 7 7 8 8 8 8 8 7 7 8 8 9 8 8 8 7 6 5 4 3 3 2 2 2 2 2 1 1 2 3 5 6 5
10 10 10 9 9 9 9 8 8 8 8 8 8 8 9 9 9 8 8 7 8 8 8 8 8 8 8 7 6 5 4 3 3 2 2 2 1 1 1 1 2 4 5 6 6
9 10 10 9 9 9 9 9 8 8 8 8 8 8 9 9 9 9 8 8 8 8 8 7 7 7 7 6 6 5 4 3 3 2 2 1 1 1 1 1 2 3 5 6 6
9 9 9 9 9 9 9 9 9 8 8 8 8 9 9 9 8 8 8 8 8 7 7 7 6 6 6 6 5 5 4 4 3 2 2 2 1 1 1 2 2 3 4 5 5
10 9 9 9 9 9 9 9 9 8 8 8 8 9 9 8 8 8 9 8 8 7 7 6 6 6 6 5 5 5 5 4 3 3 2 2 2 2 2 2 2 3 3 4 4
10 10 9 9 9 9 9 9 9 9 9 8 9 9 8 8 8 8 8 8 8 7 7 6 6 5 5 5 5 5 4 4 4 3 2 2 2 2 2 2 2 2 3 3 3
10 10 9 9 9 9 9 9 9 9 9 9 8 8 8 8 8 8 8 8 8 7 6 6 5 5 5 5 5 4 4 4 4 3 3 2 2 2 2 2 2 2 3 3 3
10 10 9 9 8 9 9 9 8 8 8 8 8 8 8 8 8 8 8 7 7 6 6 5 5 5 5 6 5 5 5 4 4 4 3 2 2 2 2 2 2 2 2 2 2
9 9 9 8 8 8 8 8 8 8 7 7 7 7 7 7 7 7 7 6 6 5 5 4 4 5 5 5 5 5 5 4 4 4 3 2 2 2 2 2 2 2 2 2 2
8 8 9 8 8 8 8 8 9 8 6 6 6 7 7 6 6 6 6 6 5 4 4 4 4 5 5 5 4 4 4 4 4 4 3 2 2 2 2 1 1 1 1 1 1
7 8 8 8 8 8 8 9 9 7 5 5 6 6 6 6 5 6 6 5 4 4 4 3 4 4 4 4 4 4 4 4 4 4 3 3 2 2 2 1 1 1 0 1 1
7 7 8 8 8 8 8 8 8 6 3 4 5 6 6 5 5 5 6 5 4 4 4 3 4 4 4 4 4 4 4 4 4 4 3 3 2 2 2 1 1 0 0 0 1
6 7 8 8 9 8 8 7 6 4 2 3 4 5 5 5 5 5 5 5 4 4 3 3 4 4 4 4 5 5 4 3 3 3 3 3 3 3 3 2 1 0 -0 -0 0
5 6 7 8 8 8 7 6 4 3 3 3 4 4 4 4 4 4 4 4 3 3 3 3 3 4 4 4 4 4 3 2 2 1 2 3 3 3 4 3 2 1 0 -0 -1
5 6 7 7 7 7 6 5 3 3 3 3 4 4 3 3 4 4 3 3 3 3 2 2 2 3 4 4 4 4 3 2 1 1 2 3 3 4 5 5 4 3 1 0 -0
6 7 7 6 6 6 5 4 3 3 3 4 4 3 3 3 3 3 3 3 3 3 3 2 2 3 4 4 4 4 4 3 2 1 1 2 3 4 5 5 5 4 3 2 1
7 7 7 6 6 6 5 4 3 3 3 4 3 3 3 3 3 3 3 3 3 4 4 3 3 3 4 4 3 3 4 4 3 2 1 1 2 3 4 5 5 5 4 3 2
8 7 7 6 6 6 5 4 4 3 3 3 3 3 3 3 3 3 3 3 4 4 4 4 3 3 3 3 3 3 4 4 3 2 1 1 1 3 4 5 5 5 5 4 4
8 8 7 7 6 6 5 5 5 4 4 4 4 4 4 3 3 3 3 3 4 4 4 4 4 3 3 3 3 4 4 4 4 3 2 2 2 3 4 5 5 5 5 5 4
8 8 7 7 6 6 6 6 5 5 6 5 5 5 5 4 4 4 4 4 4 4 4 4 4 3 2 3 4 4 4 4 4 3 3 2 2 3 4 5 5 6 6 5 5
8 8 8 7 7 6 6 6 6 6 6 6 6 6 5 5 5 5 5 5 5 4 4 5 4 4 3 3 4 4 3 4 3 3 3 3 3 3 4 5 5 6 6 5 5
8 8 7 7 7 7 6 6 6 6 6 6 6 6 5 5 5 5 5 5 5 5 5 5 5 5 4 4 4 4 3 3 3 3 3 4 3 4 4 5 5 5 5 5 5
9 8 8 7 7 7 6 6 6 6 6 6 6 6 6 5 5 5 5 5 5 5 5 5 5 5 5 5 4 4 3 3 3 3 4 4 4 4 5 5 5 5 5 5 5
9 9 8 8 7 6 6 6 6 6 6 6 6 6 6 5 5 5 5 5 5 5 5 5 5 5 5 5 5 4 3 3 3 4 4 4 4 4 5 5 5 5 5 5 5